Time,TemperatureF,DewpointF,PressureIn,WindDirection,WindDirectionDegrees,WindSpeedMPH,WindSpeedGustMPH,Humidity,HourlyPrecipIn,Conditions,Clouds,dailyrainin,SoftwareType,DateUTC
2013-04-28 00:01:00,55.6,45.6,29.61,North,0,0.0,0.0,69,0.00,,,0.00,WUHU216HW,2013-04-28 05:01:00,
2013-04-28 00:06:00,55.6,45.6,29.61,North,0,0.0,0.0,69,0.00,,,0.00,WUHU216HW,2013-04-28 05:06:00,
2013-04-28 00:11:00,55.4,45.5,29.62,North,0,0.0,0.0,69,0.00,,,0.00,WUHU216HW,2013-04-28 05:11:00,
2013-04-28 00:16:00,55.4,45.5,29.62,North,0,0.0,0.0,69,0.00,,,0.00,WUHU216HW,2013-04-28 05:16:00,
2013-04-28 00:21:00,55.4,45.9,29.61,North,0,0.0,0.0,70,0.00,,,0.00,WUHU216HW,2013-04-28 05:21:00,
2013-04-28 00:26:00,55.3,45.7,29.62,North,0,0.0,0.0,70,0.00,,,0.00,WUHU216HW,2013-04-28 05:26:00,
2013-04-28 00:31:00,55.1,45.5,29.61,North,0,0.0,0.0,70,0.00,,,0.00,WUHU216HW,2013-04-28 05:31:00,
2013-04-28 00:36:00,54.9,45.4,29.62,North,0,0.0,0.0,70,0.00,,,0.00,WUHU216HW,2013-04-28 05:36:00,
2013-04-28 00:41:00,54.5,45.4,29.62,North,0,0.0,0.0,71,0.00,,,0.00,WUHU216HW,2013-04-28 05:41:00,
2013-04-28 00:46:00,54.5,45.4,29.62,North,0,0.0,0.0,71,0.00,,,0.00,WUHU216HW,2013-04-28 05:46:00,
2013-04-28 00:51:00,54.4,45.6,29.62,North,0,0.0,0.0,72,0.00,,,0.00,WUHU216HW,2013-04-28 05:51:00,
2013-04-28 00:56:00,54.0,45.2,29.62,North,0,0.0,0.0,72,0.00,,,0.00,WUHU216HW,2013-04-28 05:56:00,
2013-04-28 01:01:00,54.0,45.2,29.62,North,0,0.0,0.0,72,0.00,,,0.00,WUHU216HW,2013-04-28 06:01:00,
2013-04-28 01:05:00,53.8,45.4,29.62,North,0,0.0,0.0,73,0.00,,,0.00,WUHU216HW,2013-04-28 06:05:00,
2013-04-28 01:10:00,53.6,45.2,29.62,North,0,0.0,0.0,73,0.00,,,0.00,WUHU216HW,2013-04-28 06:10:00,
2013-04-28 01:15:00,53.6,45.2,29.62,North,0,0.0,0.0,73,0.00,,,0.00,WUHU216HW,2013-04-28 06:15:00,
2013-04-28 01:20:00,53.5,45.0,29.62,North,0,0.0,0.0,73,0.00,,,0.00,WUHU216HW,2013-04-28 06:20:00,
2013-04-28 01:25:00,53.5,45.0,29.62,North,0,0.0,0.0,73,0.00,,,0.00,WUHU216HW,2013-04-28 06:25:00,
2013-04-28 01:30:00,53.3,45.2,29.62,North,0,0.0,0.0,74,0.00,,,0.00,WUHU216HW,2013-04-28 06:30:00,
2013-04-28 01:35:00,53.3,44.8,29.62,North,0,0.0,0.0,73,0.00,,,0.00,WUHU216HW,2013-04-28 06:35:00,
2013-04-28 01:40:00,53.1,44.6,29.62,North,0,0.0,0.0,73,0.00,,,0.00,WUHU216HW,2013-04-28 06:40:00,
2013-04-28 01:45:00,52.9,44.6,29.62,North,0,0.0,0.0,73,0.00,,,0.00,WUHU216HW,2013-04-28 06:45:00,
2013-04-28 01:50:00,52.9,44.8,29.62,North,0,0.0,0.0,74,0.00,,,0.00,WUHU216HW,2013-04-28 06:50:00,
2013-04-28 01:55:00,52.7,44.7,29.62,North,0,0.0,0.0,74,0.00,,,0.00,WUHU216HW,2013-04-28 06:55:00,
2013-04-28 02:00:00,52.7,44.7,29.62,North,0,0.0,0.0,74,0.00,,,0.00,WUHU216HW,2013-04-28 07:00:00,
2013-04-28 02:05:00,52.6,44.6,29.62,North,0,0.0,0.0,74,0.00,,,0.00,WUHU216HW,2013-04-28 07:05:00,
2013-04-28 02:10:00,52.6,44.6,29.62,North,0,0.0,0.0,74,0.00,,,0.00,WUHU216HW,2013-04-28 07:10:00,
2013-04-28 02:15:00,52.6,44.6,29.61,North,0,0.0,0.0,74,0.00,,,0.00,WUHU216HW,2013-04-28 07:15:00,
2013-04-28 02:20:00,52.4,44.4,29.61,North,0,0.0,0.0,74,0.00,,,0.00,WUHU216HW,2013-04-28 07:20:00,
2013-04-28 02:25:00,52.2,44.2,29.61,North,0,0.0,0.0,74,0.00,,,0.00,WUHU216HW,2013-04-28 07:25:00,
2013-04-28 02:30:00,52.2,44.6,29.60,North,0,0.0,0.0,75,0.00,,,0.00,WUHU216HW,2013-04-28 07:30:00,
2013-04-28 02:35:00,52.0,44.4,29.60,North,0,0.0,0.0,75,0.00,,,0.00,WUHU216HW,2013-04-28 07:35:00,
2013-04-28 02:40:00,52.0,44.4,29.60,North,0,0.0,0.0,75,0.00,,,0.00,WUHU216HW,2013-04-28 07:40:00,
2013-04-28 02:45:00,52.0,44.4,29.60,North,0,0.0,0.0,75,0.00,,,0.00,WUHU216HW,2013-04-28 07:45:00,
2013-04-28 02:50:00,51.7,44.0,29.60,North,0,0.0,0.0,75,0.00,,,0.00,WUHU216HW,2013-04-28 07:50:00,
2013-04-28 02:55:00,51.5,43.8,29.60,North,0,0.0,0.0,75,0.00,,,0.00,WUHU216HW,2013-04-28 07:55:00,
2013-04-28 03:00:00,51.3,44.0,29.60,North,0,0.0,0.0,76,0.00,,,0.00,WUHU216HW,2013-04-28 08:00:00,
2013-04-28 03:05:00,51.1,43.8,29.60,North,0,0.0,0.0,76,0.00,,,0.00,WUHU216HW,2013-04-28 08:05:00,
2013-04-28 03:10:00,51.1,44.2,29.59,North,0,0.0,0.0,77,0.00,,,0.00,WUHU216HW,2013-04-28 08:10:00,
2013-04-28 03:15:00,50.9,44.0,29.59,North,0,0.0,0.0,77,0.00,,,0.00,WUHU216HW,2013-04-28 08:15:00,
2013-04-28 03:20:00,50.8,43.8,29.60,North,0,0.0,0.0,77,0.00,,,0.00,WUHU216HW,2013-04-28 08:20:00,
2013-04-28 03:25:00,50.8,43.8,29.60,North,0,0.0,0.0,77,0.00,,,0.00,WUHU216HW,2013-04-28 08:25:00,
2013-04-28 03:30:00,50.6,43.9,29.59,North,0,0.0,0.0,78,0.00,,,0.00,WUHU216HW,2013-04-28 08:30:00,
2013-04-28 03:35:00,50.6,43.9,29.59,North,0,0.0,0.0,78,0.00,,,0.00,WUHU216HW,2013-04-28 08:35:00,
2013-04-28 03:40:00,50.4,43.7,29.59,North,0,0.0,0.0,78,0.00,,,0.00,WUHU216HW,2013-04-28 08:40:00,
2013-04-28 03:45:00,50.4,43.7,29.59,North,0,0.0,0.0,78,0.00,,,0.00,WUHU216HW,2013-04-28 08:45:00,
2013-04-28 03:50:00,50.2,43.6,29.59,North,0,0.0,0.0,78,0.00,,,0.00,WUHU216HW,2013-04-28 08:50:00,
2013-04-28 03:55:00,50.2,43.6,29.59,North,0,0.0,0.0,78,0.00,,,0.00,WUHU216HW,2013-04-28 08:55:00,
2013-04-28 04:00:00,49.9,43.6,29.59,North,0,0.0,0.0,79,0.00,,,0.00,WUHU216HW,2013-04-28 09:00:00,
2013-04-28 04:05:00,49.9,43.6,29.59,North,0,0.0,0.0,79,0.00,,,0.00,WUHU216HW,2013-04-28 09:05:00,
2013-04-28 04:10:00,49.7,43.4,29.58,North,0,0.0,0.0,79,0.00,,,0.00,WUHU216HW,2013-04-28 09:10:00,
2013-04-28 04:15:00,49.5,43.6,29.59,North,0,0.0,0.0,80,0.00,,,0.00,WUHU216HW,2013-04-28 09:15:00,
2013-04-28 04:20:00,49.3,43.4,29.59,North,0,0.0,0.0,80,0.00,,,0.00,WUHU216HW,2013-04-28 09:20:00,
2013-04-28 04:25:00,49.1,43.2,29.59,North,0,0.0,0.0,80,0.00,,,0.00,WUHU216HW,2013-04-28 09:25:00,
2013-04-28 04:30:00,49.1,43.2,29.59,North,0,0.0,0.0,80,0.00,,,0.00,WUHU216HW,2013-04-28 09:30:00,
2013-04-28 04:35:00,49.0,43.0,29.59,North,0,0.0,0.0,80,0.00,,,0.00,WUHU216HW,2013-04-28 09:35:00,
2013-04-28 04:40:00,49.0,43.0,29.59,North,0,0.0,0.0,80,0.00,,,0.00,WUHU216HW,2013-04-28 09:40:00,
2013-04-28 04:45:00,48.8,42.8,29.59,North,0,0.0,0.0,80,0.00,,,0.00,WUHU216HW,2013-04-28 09:45:00,
2013-04-28 04:50:00,48.6,43.0,29.59,North,0,0.0,0.0,81,0.00,,,0.00,WUHU216HW,2013-04-28 09:50:00,
2013-04-28 04:55:00,48.6,43.0,29.59,North,0,0.0,0.0,81,0.00,,,0.00,WUHU216HW,2013-04-28 09:55:00,
2013-04-28 05:00:00,48.4,43.1,29.59,North,0,0.0,0.0,82,0.00,,,0.00,WUHU216HW,2013-04-28 10:00:00,
2013-04-28 05:05:00,48.4,43.1,29.59,North,0,0.0,0.0,82,0.00,,,0.00,WUHU216HW,2013-04-28 10:05:00,
2013-04-28 05:10:00,48.4,43.1,29.59,North,0,0.0,0.0,82,0.00,,,0.00,WUHU216HW,2013-04-28 10:10:00,
2013-04-28 05:15:00,48.4,43.1,29.58,North,0,0.0,0.0,82,0.00,,,0.00,WUHU216HW,2013-04-28 10:15:00,
2013-04-28 05:20:00,48.4,43.1,29.58,North,0,0.0,0.0,82,0.00,,,0.00,WUHU216HW,2013-04-28 10:20:00,
2013-04-28 05:25:00,48.4,43.1,29.58,North,0,0.0,0.0,82,0.00,,,0.00,WUHU216HW,2013-04-28 10:25:00,
2013-04-28 05:30:00,48.6,43.3,29.58,North,0,0.0,0.0,82,0.00,,,0.00,WUHU216HW,2013-04-28 10:30:00,
2013-04-28 05:35:00,48.6,43.3,29.58,North,0,0.0,0.0,82,0.00,,,0.00,WUHU216HW,2013-04-28 10:35:00,
2013-04-28 05:40:00,48.6,43.3,29.58,North,0,0.0,0.0,82,0.00,,,0.00,WUHU216HW,2013-04-28 10:40:00,
2013-04-28 05:45:00,48.4,43.1,29.57,North,0,0.0,0.0,82,0.00,,,0.00,WUHU216HW,2013-04-28 10:45:00,
2013-04-28 05:50:00,48.4,43.5,29.57,North,0,0.0,0.0,83,0.00,,,0.00,WUHU216HW,2013-04-28 10:50:00,
2013-04-28 05:55:00,48.4,43.5,29.58,North,0,0.0,0.0,83,0.00,,,0.00,WUHU216HW,2013-04-28 10:55:00,
2013-04-28 06:00:00,48.4,43.5,29.58,North,0,0.0,0.0,83,0.00,,,0.00,WUHU216HW,2013-04-28 11:00:00,
2013-04-28 06:05:00,48.2,42.9,29.58,North,0,0.0,0.0,82,0.00,,,0.00,WUHU216HW,2013-04-28 11:05:00,
2013-04-28 06:10:00,48.2,42.9,29.58,North,0,0.0,0.0,82,0.00,,,0.00,WUHU216HW,2013-04-28 11:10:00,
2013-04-28 06:15:00,48.1,43.1,29.58,North,0,0.0,0.0,83,0.00,,,0.00,WUHU216HW,2013-04-28 11:15:00,
2013-04-28 06:20:00,48.1,43.1,29.58,North,0,0.0,0.0,83,0.00,,,0.00,WUHU216HW,2013-04-28 11:20:00,
2013-04-28 06:25:00,48.1,43.1,29.58,North,0,0.0,0.0,83,0.00,,,0.00,WUHU216HW,2013-04-28 11:25:00,
2013-04-28 06:30:00,48.1,43.1,29.58,North,0,0.0,0.0,83,0.00,,,0.00,WUHU216HW,2013-04-28 11:30:00,
2013-04-28 06:35:00,47.9,42.9,29.58,North,0,0.0,0.0,83,0.00,,,0.00,WUHU216HW,2013-04-28 11:35:00,
2013-04-28 06:40:00,47.9,42.9,29.58,North,0,0.0,0.0,83,0.00,,,0.00,WUHU216HW,2013-04-28 11:40:00,
2013-04-28 06:45:00,47.9,43.3,29.58,North,0,0.0,0.0,84,0.00,,,0.00,WUHU216HW,2013-04-28 11:45:00,
2013-04-28 06:50:00,48.1,43.1,29.58,North,0,0.0,0.0,83,0.00,,,0.00,WUHU216HW,2013-04-28 11:50:00,
2013-04-28 06:55:00,48.2,43.6,29.58,North,0,0.0,0.0,84,0.00,,,0.00,WUHU216HW,2013-04-28 11:55:00,
2013-04-28 07:00:00,48.2,43.3,29.58,North,0,0.0,0.0,83,0.00,,,0.00,WUHU216HW,2013-04-28 12:00:00,
2013-04-28 07:05:00,48.1,43.1,29.57,North,0,0.0,0.0,83,0.00,,,0.00,WUHU216HW,2013-04-28 12:05:00,
2013-04-28 07:10:00,48.1,43.1,29.58,North,0,0.0,0.0,83,0.00,,,0.00,WUHU216HW,2013-04-28 12:10:00,
2013-04-28 07:15:00,47.9,43.3,29.58,North,0,0.0,0.0,84,0.00,,,0.00,WUHU216HW,2013-04-28 12:15:00,
2013-04-28 07:20:00,48.1,43.5,29.58,North,0,0.0,0.0,84,0.00,,,0.00,WUHU216HW,2013-04-28 12:20:00,
2013-04-28 07:25:00,48.1,43.5,29.58,North,0,0.0,0.0,84,0.00,,,0.00,WUHU216HW,2013-04-28 12:25:00,
2013-04-28 07:30:00,48.2,43.6,29.58,North,0,0.0,0.0,84,0.00,,,0.00,WUHU216HW,2013-04-28 12:30:00,
2013-04-28 07:35:00,48.6,43.9,29.58,North,0,0.0,0.0,84,0.00,,,0.00,WUHU216HW,2013-04-28 12:35:00,
2013-04-28 07:40:00,48.8,44.5,29.58,North,0,0.0,0.0,85,0.00,,,0.00,WUHU216HW,2013-04-28 12:40:00,
2013-04-28 07:45:00,49.3,44.9,29.58,North,0,0.0,0.0,85,0.00,,,0.00,WUHU216HW,2013-04-28 12:45:00,
2013-04-28 07:50:00,49.5,44.8,29.58,North,0,0.0,0.0,84,0.00,,,0.00,WUHU216HW,2013-04-28 12:50:00,
2013-04-28 07:55:00,50.0,45.6,29.58,North,0,0.0,0.0,85,0.00,,,0.00,WUHU216HW,2013-04-28 12:55:00,
2013-04-28 08:00:00,50.4,46.3,29.58,North,0,0.0,0.0,86,0.00,,,0.00,WUHU216HW,2013-04-28 13:00:00,
2013-04-28 08:05:00,51.1,46.7,29.58,North,0,0.0,0.0,85,0.00,,,0.00,WUHU216HW,2013-04-28 13:05:00,
2013-04-28 08:10:00,52.0,47.4,29.58,North,0,0.0,0.0,84,0.00,,,0.00,WUHU216HW,2013-04-28 13:10:00,
2013-04-28 08:15:00,52.6,47.9,29.57,North,0,0.0,0.0,84,0.00,,,0.00,WUHU216HW,2013-04-28 13:15:00,
2013-04-28 08:20:00,53.5,48.2,29.57,North,0,0.0,0.0,82,0.00,,,0.00,WUHU216HW,2013-04-28 13:20:00,
2013-04-28 08:25:00,53.6,48.3,29.57,North,0,0.0,0.0,82,0.00,,,0.00,WUHU216HW,2013-04-28 13:25:00,
2013-04-28 08:30:00,54.0,48.6,29.57,North,0,0.0,0.0,82,0.00,,,0.00,WUHU216HW,2013-04-28 13:30:00,
2013-04-28 08:35:00,54.4,49.0,29.57,North,0,0.0,0.0,82,0.00,,,0.00,WUHU216HW,2013-04-28 13:35:00,
2013-04-28 08:40:00,55.1,49.0,29.57,North,0,0.0,0.0,80,0.00,,,0.00,WUHU216HW,2013-04-28 13:40:00,
2013-04-28 08:45:00,55.3,49.1,29.56,North,0,0.0,0.0,80,0.00,,,0.00,WUHU216HW,2013-04-28 13:45:00,
2013-04-28 08:49:00,55.4,49.3,29.56,North,0,0.0,0.0,80,0.00,,,0.00,WUHU216HW,2013-04-28 13:49:00,
2013-04-28 08:54:00,55.4,49.0,29.56,North,0,0.0,0.0,79,0.00,,,0.00,WUHU216HW,2013-04-28 13:54:00,
2013-04-28 08:59:00,55.6,49.5,29.56,North,0,0.0,0.0,80,0.00,,,0.00,WUHU216HW,2013-04-28 13:59:00,
2013-04-28 09:04:00,56.2,50.0,29.56,North,0,0.0,0.0,80,0.00,,,0.00,WUHU216HW,2013-04-28 14:04:00,
2013-04-28 09:09:00,56.5,50.4,29.55,North,0,0.0,0.0,80,0.00,,,0.00,WUHU216HW,2013-04-28 14:09:00,
2013-04-28 09:14:00,57.2,51.1,29.55,North,0,0.0,0.0,80,0.00,,,0.00,WUHU216HW,2013-04-28 14:14:00,
2013-04-28 09:19:00,57.6,51.1,29.55,North,0,0.0,0.0,79,0.00,,,0.00,WUHU216HW,2013-04-28 14:19:00,
2013-04-28 09:24:00,58.5,51.7,29.55,North,0,0.0,0.0,78,0.00,,,0.00,WUHU216HW,2013-04-28 14:24:00,
2013-04-28 09:29:00,58.7,51.8,29.55,North,0,0.0,0.0,78,0.00,,,0.00,WUHU216HW,2013-04-28 14:29:00,
2013-04-28 09:34:00,59.4,52.2,29.55,North,0,0.0,0.0,77,0.00,,,0.00,WUHU216HW,2013-04-28 14:34:00,
2013-04-28 09:39:00,59.8,52.6,29.54,North,0,0.0,0.0,77,0.00,,,0.00,WUHU216HW,2013-04-28 14:39:00,
2013-04-28 09:44:00,60.5,52.9,29.54,North,0,0.0,0.0,76,0.00,,,0.00,WUHU216HW,2013-04-28 14:44:00,
2013-04-28 09:49:00,61.0,53.1,29.54,North,0,0.0,0.0,75,0.00,,,0.00,WUHU216HW,2013-04-28 14:49:00,
2013-04-28 09:54:00,61.4,53.0,29.54,North,0,0.0,0.0,74,0.00,,,0.00,WUHU216HW,2013-04-28 14:54:00,
2013-04-28 09:59:00,61.6,52.8,29.53,North,0,0.0,0.0,73,0.00,,,0.00,WUHU216HW,2013-04-28 14:59:00,
2013-04-28 10:04:00,61.9,53.2,29.53,North,0,0.0,0.0,73,0.00,,,0.00,WUHU216HW,2013-04-28 15:04:00,
2013-04-28 10:09:00,62.1,53.4,29.53,North,0,0.0,0.0,73,0.00,,,0.00,WUHU216HW,2013-04-28 15:09:00,
2013-04-28 10:14:00,62.6,53.8,29.52,North,0,0.0,0.0,73,0.00,,,0.00,WUHU216HW,2013-04-28 15:14:00,
2013-04-28 10:19:00,63.2,54.4,29.52,North,0,0.0,0.0,73,0.00,,,0.00,WUHU216HW,2013-04-28 15:19:00,
2013-04-28 10:24:00,64.1,54.2,29.52,North,0,0.0,0.0,70,0.00,,,0.00,WUHU216HW,2013-04-28 15:24:00,
2013-04-28 10:29:00,64.3,54.7,29.52,North,0,0.0,0.0,71,0.00,,,0.00,WUHU216HW,2013-04-28 15:29:00,
2013-04-28 10:34:00,65.2,55.5,29.52,North,0,0.0,0.0,71,0.00,,,0.00,WUHU216HW,2013-04-28 15:34:00,
2013-04-28 10:39:00,65.5,55.5,29.52,North,0,0.0,0.0,70,0.00,,,0.00,WUHU216HW,2013-04-28 15:39:00,
2013-04-28 10:44:00,65.9,55.0,29.52,North,0,0.0,0.0,68,0.00,,,0.00,WUHU216HW,2013-04-28 15:44:00,
2013-04-28 10:49:00,66.4,55.1,29.52,North,0,0.0,0.0,67,0.00,,,0.00,WUHU216HW,2013-04-28 15:49:00,
2013-04-28 10:54:00,66.6,55.3,29.52,North,0,0.0,0.0,67,0.00,,,0.00,WUHU216HW,2013-04-28 15:54:00,
2013-04-28 10:59:00,66.6,54.8,29.52,North,0,0.0,0.0,66,0.00,,,0.00,WUHU216HW,2013-04-28 15:59:00,
2013-04-28 11:04:00,67.0,55.2,29.52,North,0,0.0,0.0,66,0.00,,,0.00,WUHU216HW,2013-04-28 16:04:00,
2013-04-28 11:09:00,67.0,54.8,29.51,North,0,0.0,0.0,65,0.00,,,0.00,WUHU216HW,2013-04-28 16:09:00,
2013-04-28 11:14:00,67.3,55.1,29.51,North,0,0.0,0.0,65,0.00,,,0.00,WUHU216HW,2013-04-28 16:14:00,
2013-04-28 11:19:00,67.9,55.6,29.51,North,0,0.0,0.0,65,0.00,,,0.00,WUHU216HW,2013-04-28 16:19:00,
2013-04-28 11:24:00,68.0,55.4,29.51,North,0,0.0,0.0,64,0.00,,,0.00,WUHU216HW,2013-04-28 16:24:00,
2013-04-28 11:29:00,68.4,55.7,29.51,North,0,0.0,0.0,64,0.00,,,0.00,WUHU216HW,2013-04-28 16:29:00,
2013-04-28 11:34:00,68.8,55.6,29.50,North,0,0.0,0.0,63,0.00,,,0.00,WUHU216HW,2013-04-28 16:34:00,
2013-04-28 11:39:00,69.1,54.7,29.50,North,0,0.0,0.0,60,0.00,,,0.00,WUHU216HW,2013-04-28 16:39:00,
2013-04-28 11:44:00,69.1,55.2,29.50,North,0,0.0,0.0,61,0.00,,,0.00,WUHU216HW,2013-04-28 16:44:00,
2013-04-28 11:49:00,69.3,54.9,29.50,North,0,0.0,0.0,60,0.00,,,0.00,WUHU216HW,2013-04-28 16:49:00,
2013-04-28 11:54:00,70.2,55.8,29.50,North,0,0.0,0.0,60,0.00,,,0.00,WUHU216HW,2013-04-28 16:54:00,
2013-04-28 11:59:00,70.6,55.1,29.50,North,0,0.0,0.0,58,0.00,,,0.00,WUHU216HW,2013-04-28 16:59:00,
2013-04-28 12:04:00,70.7,54.7,29.50,North,0,0.0,0.0,57,0.00,,,0.00,WUHU216HW,2013-04-28 17:04:00,
2013-04-28 12:09:00,70.9,54.9,29.50,North,0,0.0,0.0,57,0.00,,,0.00,WUHU216HW,2013-04-28 17:09:00,
2013-04-28 12:14:00,71.5,55.4,29.50,North,0,0.0,0.0,57,0.00,,,0.00,WUHU216HW,2013-04-28 17:14:00,
2013-04-28 12:19:00,71.6,55.1,29.50,North,0,0.0,0.0,56,0.00,,,0.00,WUHU216HW,2013-04-28 17:19:00,
2013-04-28 12:24:00,71.8,54.7,29.49,North,0,0.0,0.0,55,0.00,,,0.00,WUHU216HW,2013-04-28 17:24:00,
2013-04-28 12:29:00,72.4,55.7,29.49,North,0,0.0,0.0,56,0.00,,,0.00,WUHU216HW,2013-04-28 17:29:00,
2013-04-28 12:34:00,72.9,54.6,29.49,North,0,0.0,0.0,53,0.00,,,0.00,WUHU216HW,2013-04-28 17:34:00,
2013-04-28 12:39:00,73.1,54.8,29.49,North,0,0.0,0.0,53,0.00,,,0.00,WUHU216HW,2013-04-28 17:39:00,
2013-04-28 12:44:00,73.3,54.5,29.48,North,0,0.0,0.0,52,0.00,,,0.00,WUHU216HW,2013-04-28 17:44:00,
2013-04-28 12:49:00,73.4,54.6,29.48,North,0,0.0,0.0,52,0.00,,,0.00,WUHU216HW,2013-04-28 17:49:00,
2013-04-28 12:54:00,73.8,54.6,29.47,North,0,0.0,0.0,51,0.00,,,0.00,WUHU216HW,2013-04-28 17:54:00,
2013-04-28 12:59:00,73.8,54.0,29.47,North,0,0.0,0.0,50,0.00,,,0.00,WUHU216HW,2013-04-28 17:59:00,
2013-04-28 13:04:00,74.0,54.2,29.47,North,0,0.0,0.0,50,0.00,,,0.00,WUHU216HW,2013-04-28 18:04:00,
2013-04-28 13:09:00,74.3,53.4,29.47,North,0,0.0,0.0,48,0.00,,,0.00,WUHU216HW,2013-04-28 18:09:00,
2013-04-28 13:14:00,74.7,54.3,29.46,North,0,0.0,0.0,49,0.00,,,0.00,WUHU216HW,2013-04-28 18:14:00,
2013-04-28 13:19:00,75.4,54.4,29.46,North,0,0.0,0.0,48,0.00,,,0.00,WUHU216HW,2013-04-28 18:19:00,
2013-04-28 13:24:00,75.6,53.9,29.46,North,0,0.0,0.0,47,0.00,,,0.00,WUHU216HW,2013-04-28 18:24:00,
2013-04-28 13:29:00,75.8,53.5,29.46,North,0,0.0,0.0,46,0.00,,,0.00,WUHU216HW,2013-04-28 18:29:00,
2013-04-28 13:34:00,75.8,52.8,29.45,North,0,0.0,0.0,45,0.00,,,0.00,WUHU216HW,2013-04-28 18:34:00,
2013-04-28 13:39:00,75.8,52.3,29.45,North,0,0.0,0.0,44,0.00,,,0.00,WUHU216HW,2013-04-28 18:39:00,
2013-04-28 13:44:00,76.0,52.4,29.45,North,0,0.0,0.0,44,0.00,,,0.00,WUHU216HW,2013-04-28 18:44:00,
2013-04-28 13:49:00,76.0,52.4,29.45,North,0,0.0,0.0,44,0.00,,,0.00,WUHU216HW,2013-04-28 18:49:00,
2013-04-28 13:54:00,76.3,52.7,29.45,North,0,0.0,0.0,44,0.00,,,0.00,WUHU216HW,2013-04-28 18:54:00,
2013-04-28 13:59:00,76.7,51.8,29.45,North,0,0.0,0.0,42,0.00,,,0.00,WUHU216HW,2013-04-28 18:59:00,
2013-04-28 14:04:00,77.0,52.2,29.45,North,0,0.0,0.0,42,0.00,,,0.00,WUHU216HW,2013-04-28 19:04:00,
2013-04-28 14:09:00,77.4,52.5,29.45,North,0,0.0,0.0,42,0.00,,,0.00,WUHU216HW,2013-04-28 19:09:00,
2013-04-28 14:14:00,77.6,52.7,29.45,North,0,0.0,0.0,42,0.00,,,0.00,WUHU216HW,2013-04-28 19:14:00,
2013-04-28 14:19:00,77.9,53.0,29.44,North,0,0.0,0.0,42,0.00,,,0.00,WUHU216HW,2013-04-28 19:19:00,
2013-04-28 14:24:00,78.5,53.5,29.44,North,0,0.0,0.0,42,0.00,,,0.00,WUHU216HW,2013-04-28 19:24:00,
2013-04-28 14:29:00,78.8,53.2,29.44,North,0,0.0,0.0,41,0.00,,,0.00,WUHU216HW,2013-04-28 19:29:00,
2013-04-28 14:34:00,79.0,53.9,29.44,North,0,0.0,0.0,42,0.00,,,0.00,WUHU216HW,2013-04-28 19:34:00,
2013-04-28 14:39:00,79.2,52.9,29.44,North,0,0.0,0.0,40,0.00,,,0.00,WUHU216HW,2013-04-28 19:39:00,
2013-04-28 14:44:00,79.2,52.9,29.43,North,0,0.0,0.0,40,0.00,,,0.00,WUHU216HW,2013-04-28 19:44:00,
2013-04-28 14:49:00,79.4,53.0,29.43,North,0,0.0,0.0,40,0.00,,,0.00,WUHU216HW,2013-04-28 19:49:00,
2013-04-28 14:54:00,79.6,53.2,29.43,North,0,0.0,0.0,40,0.00,,,0.00,WUHU216HW,2013-04-28 19:54:00,
2013-04-28 14:59:00,79.6,52.5,29.43,North,0,0.0,0.0,39,0.00,,,0.00,WUHU216HW,2013-04-28 19:59:00,
2013-04-28 15:04:00,79.6,52.5,29.42,North,0,0.0,0.0,39,0.00,,,0.00,WUHU216HW,2013-04-28 20:04:00,
2013-04-28 15:09:00,79.7,52.6,29.42,North,0,0.0,0.0,39,0.00,,,0.00,WUHU216HW,2013-04-28 20:09:00,
2013-04-28 15:14:00,79.7,52.6,29.42,North,0,0.0,0.0,39,0.00,,,0.00,WUHU216HW,2013-04-28 20:14:00,
2013-04-28 15:19:00,79.9,52.7,29.42,North,0,0.0,0.0,39,0.00,,,0.00,WUHU216HW,2013-04-28 20:19:00,
2013-04-28 15:24:00,80.3,53.1,29.42,North,0,0.0,0.0,39,0.00,,,0.00,WUHU216HW,2013-04-28 20:24:00,
2013-04-28 15:29:00,80.6,52.7,29.41,North,0,0.0,0.0,38,0.00,,,0.00,WUHU216HW,2013-04-28 20:29:00,
2013-04-28 15:34:00,80.8,52.8,29.41,North,0,0.0,0.0,38,0.00,,,0.00,WUHU216HW,2013-04-28 20:34:00,
2013-04-28 15:39:00,80.8,53.6,29.41,North,0,0.0,0.0,39,0.00,,,0.00,WUHU216HW,2013-04-28 20:39:00,
2013-04-28 15:44:00,80.8,52.8,29.41,North,0,0.0,0.0,38,0.00,,,0.00,WUHU216HW,2013-04-28 20:44:00,
2013-04-28 15:49:00,80.8,52.8,29.41,North,0,0.0,0.0,38,0.00,,,0.00,WUHU216HW,2013-04-28 20:49:00,
2013-04-28 15:54:00,80.8,52.8,29.41,North,0,0.0,0.0,38,0.00,,,0.00,WUHU216HW,2013-04-28 20:54:00,
2013-04-28 15:59:00,80.6,52.7,29.40,North,0,0.0,0.0,38,0.00,,,0.00,WUHU216HW,2013-04-28 20:59:00,
2013-04-28 16:04:00,80.6,51.8,29.40,North,0,0.0,0.0,37,0.00,,,0.00,WUHU216HW,2013-04-28 21:04:00,
2013-04-28 16:09:00,80.5,52.5,29.40,North,0,0.0,0.0,38,0.00,,,0.00,WUHU216HW,2013-04-28 21:09:00,
2013-04-28 16:14:00,80.1,51.4,29.40,North,0,0.0,0.0,37,0.00,,,0.00,WUHU216HW,2013-04-28 21:14:00,
2013-04-28 16:19:00,79.9,52.0,29.39,North,0,0.0,0.0,38,0.00,,,0.00,WUHU216HW,2013-04-28 21:19:00,
2013-04-28 16:23:00,79.7,51.9,29.39,North,0,0.0,0.0,38,0.00,,,0.00,WUHU216HW,2013-04-28 21:23:00,
2013-04-28 16:28:00,79.6,51.7,29.39,North,0,0.0,0.0,38,0.00,,,0.00,WUHU216HW,2013-04-28 21:28:00,
2013-04-28 16:33:00,79.7,52.6,29.39,North,0,0.0,0.0,39,0.00,,,0.00,WUHU216HW,2013-04-28 21:33:00,
2013-04-28 16:38:00,79.6,51.7,29.39,North,0,0.0,0.0,38,0.00,,,0.00,WUHU216HW,2013-04-28 21:38:00,
2013-04-28 16:43:00,79.9,52.0,29.39,North,0,0.0,0.0,38,0.00,,,0.00,WUHU216HW,2013-04-28 21:43:00,
2013-04-28 16:48:00,79.9,52.0,29.38,North,0,0.0,0.0,38,0.00,,,0.00,WUHU216HW,2013-04-28 21:48:00,
2013-04-28 16:53:00,80.1,52.1,29.38,North,0,0.0,0.0,38,0.00,,,0.00,WUHU216HW,2013-04-28 21:53:00,
2013-04-28 16:58:00,80.3,52.3,29.38,North,0,0.0,0.0,38,0.00,,,0.00,WUHU216HW,2013-04-28 21:58:00,
2013-04-28 17:03:00,80.1,52.1,29.38,North,0,0.0,0.0,38,0.00,,,0.00,WUHU216HW,2013-04-28 22:03:00,
2013-04-28 17:08:00,79.9,51.2,29.38,North,0,0.0,0.0,37,0.00,,,0.00,WUHU216HW,2013-04-28 22:08:00,
2013-04-28 17:13:00,80.1,52.1,29.38,North,0,0.0,0.0,38,0.00,,,0.00,WUHU216HW,2013-04-28 22:13:00,
2013-04-28 17:18:00,80.1,51.4,29.38,North,0,0.0,0.0,37,0.00,,,0.00,WUHU216HW,2013-04-28 22:18:00,
2013-04-28 17:23:00,80.1,51.4,29.38,North,0,0.0,0.0,37,0.00,,,0.00,WUHU216HW,2013-04-28 22:23:00,
2013-04-28 17:28:00,80.3,52.3,29.37,North,0,0.0,0.0,38,0.00,,,0.00,WUHU216HW,2013-04-28 22:28:00,
2013-04-28 17:33:00,80.3,52.3,29.38,North,0,0.0,0.0,38,0.00,,,0.00,WUHU216HW,2013-04-28 22:33:00,
2013-04-28 17:38:00,80.3,52.3,29.38,North,0,0.0,0.0,38,0.00,,,0.00,WUHU216HW,2013-04-28 22:38:00,
2013-04-28 17:43:00,80.3,53.1,29.37,North,0,0.0,0.0,39,0.00,,,0.00,WUHU216HW,2013-04-28 22:43:00,
2013-04-28 17:48:00,80.1,52.9,29.37,North,0,0.0,0.0,39,0.00,,,0.00,WUHU216HW,2013-04-28 22:48:00,
2013-04-28 17:53:00,80.1,52.9,29.37,North,0,0.0,0.0,39,0.00,,,0.00,WUHU216HW,2013-04-28 22:53:00,
2013-04-28 17:58:00,80.3,52.3,29.37,North,0,0.0,0.0,38,0.00,,,0.00,WUHU216HW,2013-04-28 22:58:00,
2013-04-28 18:03:00,80.1,52.1,29.37,North,0,0.0,0.0,38,0.00,,,0.00,WUHU216HW,2013-04-28 23:03:00,
2013-04-28 18:08:00,80.1,52.1,29.37,North,0,0.0,0.0,38,0.00,,,0.00,WUHU216HW,2013-04-28 23:08:00,
2013-04-28 18:13:00,80.3,53.1,29.37,North,0,0.0,0.0,39,0.00,,,0.00,WUHU216HW,2013-04-28 23:13:00,
2013-04-28 18:18:00,80.3,51.6,29.37,North,0,0.0,0.0,37,0.00,,,0.00,WUHU216HW,2013-04-28 23:18:00,
2013-04-28 18:23:00,80.5,52.5,29.37,North,0,0.0,0.0,38,0.00,,,0.00,WUHU216HW,2013-04-28 23:23:00,
2013-04-28 18:28:00,80.5,52.5,29.37,North,0,0.0,0.0,38,0.00,,,0.00,WUHU216HW,2013-04-28 23:28:00,
2013-04-28 18:33:00,80.5,52.5,29.37,North,0,0.0,0.0,38,0.00,,,0.00,WUHU216HW,2013-04-28 23:33:00,
2013-04-28 18:38:00,80.3,53.1,29.36,North,0,0.0,0.0,39,0.00,,,0.00,WUHU216HW,2013-04-28 23:38:00,
2013-04-28 18:43:00,79.9,52.0,29.36,North,0,0.0,0.0,38,0.00,,,0.00,WUHU216HW,2013-04-28 23:43:00,
2013-04-28 18:48:00,79.7,52.6,29.36,North,0,0.0,0.0,39,0.00,,,0.00,WUHU216HW,2013-04-28 23:48:00,
2013-04-28 18:53:00,79.7,52.6,29.36,North,0,0.0,0.0,39,0.00,,,0.00,WUHU216HW,2013-04-28 23:53:00,
2013-04-28 18:58:00,79.2,52.1,29.37,North,0,0.0,0.0,39,0.00,,,0.00,WUHU216HW,2013-04-28 23:58:00,
2013-04-28 19:03:00,79.0,52.8,29.36,North,0,0.0,0.0,40,0.00,,,0.00,WUHU216HW,2013-04-29 00:03:00,
2013-04-28 19:08:00,78.8,52.6,29.36,North,0,0.0,0.0,40,0.00,,,0.00,WUHU216HW,2013-04-29 00:08:00,
2013-04-28 19:13:00,78.5,52.2,29.36,North,0,0.0,0.0,40,0.00,,,0.00,WUHU216HW,2013-04-29 00:13:00,
2013-04-28 19:18:00,78.3,52.1,29.36,North,0,0.0,0.0,40,0.00,,,0.00,WUHU216HW,2013-04-29 00:18:00,
2013-04-28 19:23:00,78.1,51.9,29.36,North,0,0.0,0.0,40,0.00,,,0.00,WUHU216HW,2013-04-29 00:23:00,
2013-04-28 19:28:00,77.9,51.8,29.36,North,0,0.0,0.0,40,0.00,,,0.00,WUHU216HW,2013-04-29 00:28:00,
2013-04-28 19:33:00,77.6,51.4,29.36,North,0,0.0,0.0,40,0.00,,,0.00,WUHU216HW,2013-04-29 00:33:00,
2013-04-28 19:38:00,77.4,51.8,29.36,North,0,0.0,0.0,41,0.00,,,0.00,WUHU216HW,2013-04-29 00:38:00,
2013-04-28 19:43:00,77.0,51.6,29.36,North,0,0.0,0.0,41,0.00,,,0.00,WUHU216HW,2013-04-29 00:43:00,
2013-04-28 19:48:00,76.9,51.4,29.36,North,0,0.0,0.0,41,0.00,,,0.00,WUHU216HW,2013-04-29 00:48:00,
2013-04-28 19:53:00,76.7,51.2,29.36,North,0,0.0,0.0,41,0.00,,,0.00,WUHU216HW,2013-04-29 00:53:00,
2013-04-28 19:58:00,76.5,51.0,29.36,North,0,0.0,0.0,41,0.00,,,0.00,WUHU216HW,2013-04-29 00:58:00,
2013-04-28 20:03:00,76.0,51.2,29.36,North,0,0.0,0.0,42,0.00,,,0.00,WUHU216HW,2013-04-29 01:03:00,
2013-04-28 20:08:00,75.8,51.0,29.37,North,0,0.0,0.0,42,0.00,,,0.00,WUHU216HW,2013-04-29 01:08:00,
2013-04-28 20:13:00,75.4,51.3,29.36,North,0,0.0,0.0,43,0.00,,,0.00,WUHU216HW,2013-04-29 01:13:00,
2013-04-28 20:18:00,74.9,50.9,29.37,North,0,0.0,0.0,43,0.00,,,0.00,WUHU216HW,2013-04-29 01:18:00,
2013-04-28 20:23:00,74.5,51.1,29.36,North,0,0.0,0.0,44,0.00,,,0.00,WUHU216HW,2013-04-29 01:23:00,
2013-04-28 20:28:00,74.3,51.0,29.37,North,0,0.0,0.0,44,0.00,,,0.00,WUHU216HW,2013-04-29 01:28:00,
2013-04-28 20:33:00,74.2,50.8,29.36,North,0,0.0,0.0,44,0.00,,,0.00,WUHU216HW,2013-04-29 01:33:00,
2013-04-28 20:38:00,74.0,51.2,29.37,North,0,0.0,0.0,45,0.00,,,0.00,WUHU216HW,2013-04-29 01:38:00,
2013-04-28 20:43:00,73.8,51.0,29.37,North,0,0.0,0.0,45,0.00,,,0.00,WUHU216HW,2013-04-29 01:43:00,
2013-04-28 20:48:00,73.4,50.7,29.37,North,0,0.0,0.0,45,0.00,,,0.00,WUHU216HW,2013-04-29 01:48:00,
2013-04-28 20:53:00,73.1,50.9,29.37,North,0,0.0,0.0,46,0.00,,,0.00,WUHU216HW,2013-04-29 01:53:00,
2013-04-28 20:58:00,72.7,50.6,29.37,North,0,0.0,0.0,46,0.00,,,0.00,WUHU216HW,2013-04-29 01:58:00,
2013-04-28 21:03:00,72.5,50.5,29.38,North,0,0.0,0.0,46,0.00,,,0.00,WUHU216HW,2013-04-29 02:03:00,
2013-04-28 21:08:00,72.2,50.8,29.38,North,0,0.0,0.0,47,0.00,,,0.00,WUHU216HW,2013-04-29 02:08:00,
2013-04-28 21:13:00,72.0,50.6,29.38,North,0,0.0,0.0,47,0.00,,,0.00,WUHU216HW,2013-04-29 02:13:00,
2013-04-28 21:18:00,72.0,50.6,29.39,North,0,0.0,0.0,47,0.00,,,0.00,WUHU216HW,2013-04-29 02:18:00,
2013-04-28 21:23:00,71.6,50.9,29.38,North,0,0.0,0.0,48,0.00,,,0.00,WUHU216HW,2013-04-29 02:23:00,
2013-04-28 21:28:00,71.3,50.5,29.39,North,0,0.0,0.0,48,0.00,,,0.00,WUHU216HW,2013-04-29 02:28:00,
2013-04-28 21:33:00,70.9,50.8,29.39,North,0,0.0,0.0,49,0.00,,,0.00,WUHU216HW,2013-04-29 02:33:00,
2013-04-28 21:38:00,70.7,50.6,29.39,North,0,0.0,0.0,49,0.00,,,0.00,WUHU216HW,2013-04-29 02:38:00,
2013-04-28 21:43:00,70.4,50.9,29.39,North,0,0.0,0.0,50,0.00,,,0.00,WUHU216HW,2013-04-29 02:43:00,
2013-04-28 21:48:00,70.2,50.8,29.39,North,0,0.0,0.0,50,0.00,,,0.00,WUHU216HW,2013-04-29 02:48:00,
2013-04-28 21:53:00,70.2,51.2,29.40,North,0,0.0,0.0,51,0.00,,,0.00,WUHU216HW,2013-04-29 02:53:00,
2013-04-28 21:58:00,70.0,51.0,29.40,North,0,0.0,0.0,51,0.00,,,0.00,WUHU216HW,2013-04-29 02:58:00,
2013-04-28 22:03:00,69.5,50.6,29.40,North,0,0.0,0.0,51,0.00,,,0.00,WUHU216HW,2013-04-29 03:03:00,
2013-04-28 22:08:00,69.5,51.1,29.40,North,0,0.0,0.0,52,0.00,,,0.00,WUHU216HW,2013-04-29 03:08:00,
2013-04-28 22:13:00,69.1,50.8,29.40,North,0,0.0,0.0,52,0.00,,,0.00,WUHU216HW,2013-04-29 03:13:00,
2013-04-28 22:18:00,68.9,51.1,29.40,North,0,0.0,0.0,53,0.00,,,0.00,WUHU216HW,2013-04-29 03:18:00,
2013-04-28 22:23:00,68.8,51.4,29.41,North,0,0.0,0.0,54,0.00,,,0.00,WUHU216HW,2013-04-29 03:23:00,
2013-04-28 22:28:00,68.8,51.4,29.41,North,0,0.0,0.0,54,0.00,,,0.00,WUHU216HW,2013-04-29 03:28:00,
2013-04-28 22:33:00,68.6,51.2,29.41,North,0,0.0,0.0,54,0.00,,,0.00,WUHU216HW,2013-04-29 03:33:00,
2013-04-28 22:38:00,68.0,51.2,29.41,North,0,0.0,0.0,55,0.00,,,0.00,WUHU216HW,2013-04-29 03:38:00,
2013-04-28 22:43:00,67.9,51.6,29.40,North,0,0.0,0.0,56,0.00,,,0.00,WUHU216HW,2013-04-29 03:43:00,
2013-04-28 22:48:00,67.5,51.2,29.40,North,0,0.0,0.0,56,0.00,,,0.00,WUHU216HW,2013-04-29 03:48:00,
2013-04-28 22:53:00,67.3,51.6,29.40,North,0,0.0,0.0,57,0.00,,,0.00,WUHU216HW,2013-04-29 03:53:00,
2013-04-28 22:58:00,67.1,51.8,29.41,North,0,0.0,0.0,58,0.00,,,0.00,WUHU216HW,2013-04-29 03:58:00,
2013-04-28 23:01:00,67.0,51.7,29.41,North,0,0.0,0.0,58,0.00,,,0.00,WUHU216HW,2013-04-29 04:01:00,
2013-04-28 23:06:00,67.0,51.7,29.41,North,0,0.0,0.0,58,0.00,,,0.00,WUHU216HW,2013-04-29 04:06:00,
2013-04-28 23:11:00,66.8,52.0,29.41,North,0,0.0,0.0,59,0.00,,,0.00,WUHU216HW,2013-04-29 04:11:00,
2013-04-28 23:16:00,66.6,51.8,29.41,North,0,0.0,0.0,59,0.00,,,0.00,WUHU216HW,2013-04-29 04:16:00,
2013-04-28 23:21:00,66.6,51.8,29.41,North,0,0.0,0.0,59,0.00,,,0.00,WUHU216HW,2013-04-29 04:21:00,
2013-04-28 23:26:00,66.6,52.4,29.41,North,0,0.0,0.0,60,0.00,,,0.00,WUHU216HW,2013-04-29 04:26:00,
2013-04-28 23:31:00,66.4,52.2,29.41,North,0,0.0,0.0,60,0.00,,,0.00,WUHU216HW,2013-04-29 04:31:00,
2013-04-28 23:36:00,66.2,52.0,29.41,North,0,0.0,0.0,60,0.00,,,0.00,WUHU216HW,2013-04-29 04:36:00,
2013-04-28 23:41:00,66.1,52.3,29.41,North,0,0.0,0.0,61,0.00,,,0.00,WUHU216HW,2013-04-29 04:41:00,
2013-04-28 23:46:00,65.9,52.1,29.41,North,0,0.0,0.0,61,0.00,,,0.00,WUHU216HW,2013-04-29 04:46:00,
2013-04-28 23:51:00,65.5,52.6,29.41,North,0,0.0,0.0,63,0.00,,,0.00,WUHU216HW,2013-04-29 04:51:00,
2013-04-28 23:56:00,65.3,52.4,29.41,North,0,0.0,0.0,63,0.00,,,0.00,WUHU216HW,2013-04-29 04:56:00,